Location: Anankanda
(14.7841°N, 3.0348°W)
Time: 01:27:23
(UTC+00:00)

YAOGAN 1 - Pass Details

Date: 17 January 2021
Orbit: 618 x 620 km, 97.9° (Epoch: 07 March)

Event Time Altitude Azimuth Distance (km) Brightness Sun altitude
Rises 19:05:26 0° 163° (SSE) 2,882 6.0 -15.0°
Reaches altitude 10° 19:07:38 10° 160° (SSE) 1,978 5.1 -15.5°
Maximum altitude 19:11:54 68° 78° (ENE) 666 2.4 -16.5°
Drops below altitude 10° 19:16:11 10° 355° (N) 1,981 5.0 -17.5°
Sets 19:18:22 0° 353° (N) 2,887 5.9 -18.0°
